Location: El Abasto
(10.3790°N, 67.5897°W)
Time: 19:04:52
(UTC+00:00)

Cosmos 1844 Rocket - Pass Details

Date: 19 May 2024
Orbit: 825 x 842 km, 71.0° (Epoch: 12 June)

Event Time Altitude Azimuth Distance (km) Brightness Sun altitude
Rises 23:08:51 0° 341° (NNW) 3,351 6.5 -6.1°
Reaches altitude 10° 23:11:16 10° 339° (NNW) 2,419 5.8 -6.7°
Maximum altitude 23:16:47 75° 255° (WSW) 855 2.9 -7.9°
Drops below altitude 10° 23:22:20 10° 170° (S) 2,427 4.8 -9.2°
Sets 23:24:47 0° 168° (SSE) 3,362 5.5 -9.7°
